sat.trackr.live / text

‹ back to catalog

YAOGAN-31 03C

NORAD 47695 · 2021-014E

PAYLOAD ACTIVE UNKNOWN

§ Identity

Operator
Country
PRC
Launch date
2021-02-24
Launch site
JSC
Launch vehicle
Mass (kg)
RCS (m²)

External: N2YO · Heavens-Above · Gunter

§ Orbital elements

Epoch: 2026-09-20T21:29:44.203200Z

Period
107.03 min
Inclination
63.4036°
Eccentricity
0.0185424
Mean motion
13.45454607 rev/d
Perigee alt
950.6 km
Apogee alt
1,227.5 km
Semi-major
7,467.2 km
B*
8.3861e-6
RAAN
311.7140°
Arg perigee
1.2469°
Mean anomaly
358.8983°
Rev number
27,360

§ Raw data

YAOGAN-31 03C1 47695U 21014E   26263.89565050 -.00000085  00000+0  83861-5 0  99902 47695  63.4036 311.7140 0185424   1.2469 358.8983 13.45454607273609

JSON: /api/v1/satellites/47695 · /tle

For live sub-satellite position, see the globe view (requires WebGL).

§ Visibility from observer

Set your observer location to see the next 7 days of passes ≥ 10°. The values pass through the URL so the page stays shareable.

No JS? Fill the form by hand. The geolocation button needs JavaScript.